Wolf Creek, OR

6:54 AM PST on February 08, 2016 (GMT -0800)
Sexton Summit

Weather History for KSXT - February, 2014

Change the Weather History Date:

Thursday, February 20, 2014

  Actual Average Record
Temperature  
Mean Temperature 36 °F -  
Max Temperature 41 °F 40 °F 46 °F (2015)
Min Temperature 30 °F 30 °F 30 °F (2014)
Degree Days  
Heating Degree Days 30    
Moisture  
Dew Point 32 °F    
Average Humidity 97    
Maximum Humidity 100    
Minimum Humidity 76    
Precipitation  
Precipitation 0.00 in - - ()
Sea Level Pressure  
Sea Level Pressure 30.26 in    
Wind  
Wind Speed 7 mph (South)    
Max Wind Speed 10 mph    
Max Gust Speed -    
Visibility 5 miles    
Events Fog    
Averages and records for this station are not official NWS values.
T = Trace of Precipitation, MM = Missing Value Source: NWS Daily Summary

Daily Weather History Graph

Daily Weather History Graph

Search for Another Location

Airport or City:

Trip Planner

Search our weather history database for the weather conditions in past years. The results will help you decide how hot, cold, wet, or windy it might be!

Date:

Astronomy

Feb. 20, 2014 Rise Set
Actual Time 7:02 AM PST 5:52 PM PST
Civil Twilight 6:34 AM PST 6:20 PM PST
Nautical Twilight 6:01 AM PST 6:53 PM PST
Astronomical Twilight 5:28 AM PST 7:26 PM PST
Moon No Moon Rise 9:41 AM PST (2/20)
Length of Visible Light 11h 46m
Length of Day
10h 49m
Waning Gibbous, 70% of the Moon is Illuminated
Feb 20
Waning Gibbous
Feb 22
Last Quarter
Mar 1
New
Mar 8
First Quarter
Mar 16
Full

Hourly Weather History & Observations

Time (PST) Temp. Windchill Dew Point Humidity Pressure Visibility Wind Dir Wind Speed Gust Speed Precip Events Conditions
12:56 AM 30.9 °F 23.5 °F 28.9 °F 92% 30.33 in 10.0 mi SSW 8.1 mph - N/A   Overcast
1:56 AM 30.0 °F 22.4 °F 28.9 °F 96% 30.33 in 10.0 mi SSW 8.1 mph - N/A   Overcast
2:14 AM 30.0 °F 23.2 °F 28.9 °F 96% 30.24 in 1.2 mi South 6.9 mph - N/A   Overcast
2:22 AM 30.0 °F 22.4 °F 30.0 °F 100% 30.25 in 0.8 mi South 8.1 mph - N/A   Overcast
2:24 AM 30.0 °F 22.4 °F 30.0 °F 100% 30.24 in 1.5 mi South 8.1 mph - N/A   Overcast
2:26 AM 30.0 °F 22.4 °F 30.0 °F 100% 30.24 in 3.0 mi South 8.1 mph - N/A   Overcast
2:36 AM 30.0 °F 23.2 °F 30.0 °F 100% 30.25 in 1.2 mi South 6.9 mph - N/A   Overcast
2:40 AM 30.0 °F 22.4 °F 30.0 °F 100% 30.25 in 0.5 mi South 8.1 mph - N/A Fog Light Freezing Fog
2:43 AM 30.0 °F 22.4 °F 30.0 °F 100% 30.25 in 0.2 mi South 8.1 mph - N/A Fog Light Freezing Fog
2:56 AM 30.0 °F 22.4 °F 30.0 °F 100% 30.33 in 0.8 mi South 8.1 mph - N/A   Overcast
3:13 AM 30.0 °F 22.4 °F 30.0 °F 100% 30.24 in 1.0 mi South 8.1 mph - N/A   Overcast
3:24 AM 30.0 °F 22.4 °F 30.0 °F 100% 30.24 in 0.8 mi South 8.1 mph - N/A   Overcast
3:30 AM 30.0 °F 21.7 °F 30.0 °F 100% 30.24 in 1.2 mi South 9.2 mph - N/A   Overcast
3:42 AM 30.0 °F 23.2 °F 30.0 °F 100% 30.24 in 1.5 mi South 6.9 mph - N/A   Overcast
3:44 AM 30.0 °F 23.2 °F 30.0 °F 100% 30.24 in 3.0 mi South 6.9 mph - N/A   Overcast
3:56 AM 30.0 °F 22.4 °F 30.0 °F 100% 30.33 in 7.0 mi South 8.1 mph - N/A   Overcast
4:01 AM 30.0 °F 22.4 °F 30.0 °F 100% 30.24 in 1.8 mi South 8.1 mph - N/A   Overcast
4:04 AM 30.0 °F 23.2 °F 30.0 °F 100% 30.24 in 1.0 mi South 6.9 mph - N/A   Overcast
4:12 AM 30.0 °F 23.2 °F 30.0 °F 100% 30.24 in 0.5 mi South 6.9 mph - N/A Fog Light Freezing Fog
4:27 AM 30.0 °F 22.4 °F 30.0 °F 100% 30.24 in 0.2 mi South 8.1 mph - N/A Fog Light Freezing Fog
4:56 AM 30.0 °F 22.4 °F 30.0 °F 100% 30.32 in 0.2 mi South 8.1 mph - N/A Fog Light Freezing Fog
5:11 AM 30.0 °F 23.2 °F 30.0 °F 100% 30.24 in 0.2 mi South 6.9 mph - N/A Fog Light Freezing Fog
5:33 AM 30.0 °F 23.2 °F 30.0 °F 100% 30.24 in 0.2 mi South 6.9 mph - N/A Fog Light Freezing Fog
5:56 AM 30.0 °F 23.2 °F 30.0 °F 100% 30.33 in 0.2 mi South 6.9 mph - N/A Fog Light Freezing Fog
6:24 AM 30.0 °F 23.2 °F 30.0 °F 100% 30.24 in 0.2 mi South 6.9 mph - N/A Fog Light Freezing Fog
6:37 AM 30.0 °F 24.1 °F 30.0 °F 100% 30.24 in 0.5 mi SSE 5.8 mph - N/A Fog Light Freezing Fog
6:48 AM 30.0 °F 25.2 °F 30.0 °F 100% 30.24 in 1.5 mi SSE 4.6 mph - N/A   Overcast
6:51 AM 30.2 °F 25.4 °F 30.2 °F 100% 30.24 in 3.0 mi SSE 4.6 mph - N/A   Overcast
6:56 AM 30.0 °F 24.1 °F 30.0 °F 100% 30.34 in 8.0 mi SSE 5.8 mph - N/A   Overcast
7:34 AM 30.0 °F 23.2 °F 30.0 °F 100% 30.25 in 8.0 mi SSE 6.9 mph - N/A   Overcast
7:56 AM 30.0 °F 22.4 °F 30.0 °F 100% 30.34 in 10.0 mi SSE 8.1 mph - N/A   Overcast
8:15 AM 30.9 °F 22.8 °F 30.0 °F 96% 30.25 in 10.0 mi SSE 9.2 mph - N/A   Overcast
8:41 AM 30.9 °F 24.3 °F 30.0 °F 96% 30.26 in 10.0 mi SSE 6.9 mph - N/A   Overcast
8:56 AM 30.9 °F 24.3 °F 30.0 °F 96% 30.35 in 10.0 mi SE 6.9 mph - N/A   Overcast
9:27 AM 32.0 °F 24.8 °F 30.9 °F 96% 30.26 in 10.0 mi SSE 8.1 mph - N/A   Overcast
9:34 AM 33.1 °F 26.1 °F 30.9 °F 92% 30.26 in 10.0 mi SSE 8.1 mph - N/A   Overcast
9:56 AM 33.1 °F 26.1 °F 30.9 °F 92% 30.33 in 10.0 mi SE 8.1 mph - N/A   Overcast
10:56 AM 34.0 °F 26.0 °F 32.0 °F 92% 30.33 in 10.0 mi SE 10.4 mph - N/A   Overcast
11:56 AM 39.0 °F 34.8 °F 35.1 °F 86% 30.32 in 10.0 mi SSE 5.8 mph - N/A   Overcast
12:56 PM 41.0 °F 37.1 °F 34.0 °F 76% 30.28 in 10.0 mi South 5.8 mph - N/A   Overcast
1:07 PM 37.9 °F 35.5 °F 37.0 °F 97% 30.23 in 2.5 mi NW 3.5 mph - N/A   Mostly Cloudy
1:09 PM 37.0 °F 34.5 °F 36.0 °F 96% 30.23 in 0.8 mi NNW 3.5 mph - N/A   Mostly Cloudy
1:12 PM 37.0 °F - 36.0 °F 96% 30.23 in 0.2 mi Calm Calm - N/A Fog Fog
1:32 PM 36.0 °F 33.3 °F 36.0 °F 100% 30.23 in 1.0 mi Variable 3.5 mph - N/A   Overcast
1:36 PM 37.9 °F - 35.1 °F 89% 30.23 in 1.8 mi Calm Calm - N/A   Overcast
1:39 PM 39.0 °F - 35.1 °F 86% 30.23 in 4.0 mi Calm Calm - N/A   Overcast
1:56 PM 39.0 °F - 36.0 °F 89% 30.29 in 10.0 mi Calm Calm - N/A   Overcast
2:40 PM 39.0 °F - 36.0 °F 89% 30.23 in 10.0 mi Calm Calm - N/A   Overcast
2:56 PM 37.9 °F - 34.0 °F 86% 30.29 in 10.0 mi Calm Calm - N/A   Overcast
3:56 PM 37.9 °F 33.5 °F 35.1 °F 89% 30.29 in 10.0 mi NNE 5.8 mph - N/A   Overcast
4:38 PM 37.0 °F 33.3 °F 34.0 °F 89% 30.22 in 10.0 mi North 4.6 mph - N/A   Mostly Cloudy
4:48 PM 37.0 °F 33.3 °F 34.0 °F 89% 30.22 in 10.0 mi North 4.6 mph - N/A   Overcast
4:56 PM 36.0 °F 32.1 °F 34.0 °F 93% 30.29 in 10.0 mi North 4.6 mph - N/A   Overcast
5:56 PM 36.0 °F 31.1 °F 35.1 °F 97% 30.28 in 10.0 mi NNW 5.8 mph - N/A   Overcast
6:12 PM 36.0 °F 31.1 °F 35.1 °F 97% 30.21 in 10.0 mi NNW 5.8 mph - N/A   Overcast
6:24 PM 36.0 °F 30.3 °F 35.1 °F 97% 30.21 in 1.8 mi NNW 6.9 mph - N/A   Overcast
6:27 PM 36.0 °F 31.1 °F 35.1 °F 97% 30.21 in 0.8 mi NNW 5.8 mph - N/A   Overcast
6:38 PM 36.0 °F 33.3 °F 36.0 °F 100% 30.22 in 1.5 mi North 3.5 mph - N/A   Overcast
6:52 PM 36.0 °F 32.1 °F 36.0 °F 100% 30.29 in 4.0 mi North 4.6 mph - N/A   Overcast
7:09 PM 36.0 °F 32.1 °F 36.0 °F 100% 30.22 in 1.8 mi NNW 4.6 mph - N/A   Overcast
7:12 PM 36.0 °F 31.1 °F 36.0 °F 100% 30.22 in 0.8 mi NNW 5.8 mph - N/A   Overcast
7:22 PM 36.0 °F 31.1 °F 36.0 °F 100% 30.22 in 0.2 mi NNW 5.8 mph - N/A Fog Fog
7:31 PM 35.1 °F 30.1 °F 35.1 °F 100% 30.22 in 0.8 mi NNW 5.8 mph - N/A   Overcast
7:33 PM 35.1 °F 30.1 °F 35.1 °F 100% 30.22 in 2.0 mi NNW 5.8 mph - N/A   Overcast
7:38 PM 36.0 °F 30.3 °F 36.0 °F 100% 30.22 in 6.0 mi North 6.9 mph - N/A   Overcast
7:56 PM 36.0 °F 31.1 °F 35.1 °F 97% 30.30 in 6.0 mi NNE 5.8 mph - N/A   Overcast
8:56 PM 36.0 °F 32.1 °F 36.0 °F 100% 30.29 in 10.0 mi NNE 4.6 mph - N/A   Overcast
9:56 PM 36.0 °F 30.3 °F 35.1 °F 97% 30.29 in 10.0 mi NE 6.9 mph - N/A   Overcast
10:56 PM 36.0 °F 32.1 °F 35.1 °F 97% 30.28 in 10.0 mi ESE 4.6 mph - N/A   Overcast
11:56 PM 36.0 °F 32.1 °F 34.0 °F 93% 30.25 in 10.0 mi ESE 4.6 mph - N/A   Overcast